Location: Brunsen
(51.8651°N, 9.8610°E)
Time: 11:15:23
(UTC+00:00)

Cosmos 2082 Rocket - Pass Details

Date: 23 May 2024
Orbit: 832 x 853 km, 71.0° (Epoch: 23 June)

Event Time Altitude Azimuth Distance (km) Brightness Sun altitude
Exits shadow 01:48:35 - 249° (WSW) 2,664 4.3 -10.3°
Reaches altitude 10° 01:49:07 10° 251° (WSW) 2,484 4.2 -10.3°
Maximum altitude 01:54:17 34° 316° (NW) 1,382 3.4 -9.8°
Drops below altitude 10° 01:59:28 10° 20° (NNE) 2,492 6.0 -9.3°
Sets 02:02:10 0° 30° (NNE) 3,429 7.5 -9.1°
